Regional Weather Roundup
Issued by NWS

Home | Current Version | Previous Version | Text Only | Print | Product List | Glossary On
Versions: 1 2 3 4 5 6 7 8 9 10 11 12 13 14 15 16 17 18 19 20 21 22 23 24 25 26 27 28 29 30 31 32 33 34 35 36 37 38 39 40 41 42 43 44 45 46 47 48 49 50
000
ASUS43 KBIS 011102
RWRND

NORTH DAKOTA REGIONAL WEATHER ROUNDUP
NATIONAL WEATHER SERVICE BISMARCK ND
600 AM CDT SAT AUG 01 2015

NOTE: "FAIR" INDICATES FEW OR NO CLOUDS BELOW 12,000 FEET WITH NO
SIGNIFICANT WEATHER AND/OR OBSTRUCTIONS TO VISIBILITY.


NDZ001>003-009>011-017-011200-
NORTHWEST NORTH DAKOTA

CITY           SKY/WX    TMP DP  RH WIND       PRES   REMARKS
WILLISTON      CLEAR     61  54  77 N6        29.95F
MINOT          PTCLDY    55  51  86 CALM      29.96F
MINOT AFB      PTCLDY    53  53  99 CALM      29.95F
$$

NDZ018>021-031>035-040>046-011200-
SOUTHWEST NORTH DAKOTA

CITY           SKY/WX    TMP DP  RH WIND       PRES   REMARKS
BISMARCK       CLEAR     57  55  93 E8        29.97F
DICKINSON      CLEAR     52  48  86 E7        29.92F
GARRISON         N/A     57  53  86 E5        29.96F
HETTINGER ARPT CLEAR     61  50  67 W5        29.97F
$$

NDZ004>008-012>016-024-026-027-054-011200-
NORTHEAST NORTH DAKOTA

CITY           SKY/WX    TMP DP  RH WIND       PRES   REMARKS
GRAND FORKS    PTCLDY    54  50  86 CALM      29.95F
GRND FRKS AFB  CLEAR     55  51  88 W5        29.95F
DEVILS LAKE    MOCLDY    63  54  72 CALM      29.97F
$$

NDZ022-023-025-028>030-036>039-047>053-011200-
SOUTHEAST NORTH DAKOTA

CITY           SKY/WX    TMP DP  RH WIND       PRES   REMARKS
FARGO          PTCLDY    59  54  83 CALM      29.97S
JAMESTOWN      PTCLDY    58  55  90 CALM      29.98F
$$



USA.gov is the U.S. government's official web portal to all federal, state and local government web resources and services.